Location: *
(49.0044°N, 9.5056°E)
Time: 21:35:57
(UTC+00:00)

USA 186 - Pass Details

Date: 22 September 2019
Orbit: 261 x 450 km, 96.9° (Epoch: 07 October)

Event Time Altitude Azimuth Distance (km) Brightness Sun altitude
Exits shadow 19:36:54 12° 213° (SSW) 1,492 4.6 -22.3°
Maximum altitude 19:39:27 24° 266° (W) 986 4.2 -22.6°
Drops below altitude 10° 19:42:18 10° 322° (NW) 1,590 5.6 -23.0°
Sets 19:44:36 0° 337° (NNW) 2,454 6.5 -23.4°
